This demonstration page uses our WeatherBlox Daily Observations layout. Learn more.

38.88101, -77.10428

Hourly Observations for July 31, 2020

Temp ( °F °C ) Dew Point ( °F °C ) Humidity (%) Winds ( mph kmh ) Pressure ( in mb ) Visibility ( mi km ) Precip ( " mm )
12:01 am 00:01 Cloudy with Light Rain 75 23.9 72 22.2 90 90 S 12 19 29.88 1012 7 11.26538 0.001 0.001
12:20 am 00:20 Cloudy with Light Rain 75 23.9 72 22.2 90 90 S 6 9 29.87 1011 10 16.0934 0.02 0.508
12:52 am 00:52 Cloudy with Light Rain 75 23.9 72 22.2 90 90 SSE 7 11 29.85 1011 10 16.0934 0.03 0.762
1:52 am 01:52 Cloudy with Light Rain 75 23.9 72 22.2 90 90 Calm 29.82 1010 10 16.0934 0.01 0.254
2:22 am 02:22 Mostly Cloudy with Light Rain 75 23.9 72 22.2 90 90 Calm 29.8 1009 10 16.0934 0.001 0.001
2:52 am 02:52 Cloudy 76 24.4 72 22.2 88 88 Calm 29.79 1009 10 16.0934 0.001 0.001
3:36 am 03:36 Cloudy 76 24.4 73 22.8 91 91 E 5 7 29.79 1009 10 16.0934 0 0
3:52 am 03:52 Cloudy 76 24.4 73 22.8 91 91 VRB 3 6 29.79 1009 10 16.0934 0 0
4:00 am 04:00 Cloudy 76 24.4 73 22.8 91 91 E 3 6 29.79 1009 10 16.0934 0 0
4:52 am 04:52 Cloudy with Light Rain 75 23.9 73 22.8 94 94 SE 6 9 29.78 1009 6 9.65604 0.001 0.001
4:59 am 04:59 Cloudy with Light Rain 75 23.9 73 22.8 94 94 SE 5 7 29.78 1008 7 11.26538 0.001 0.001
5:07 am 05:07 Cloudy with Light Rain 75 23.9 73 22.8 94 94 Calm 29.78 1008 10 16.0934 0.001 0.001
5:45 am 05:45 Cloudy 75 23.9 72 22.2 90 90 E 3 6 29.78 1008 10 16.0934 0.02 0.508
5:52 am 05:52 Cloudy 75 23.9 72 22.2 90 90 E 5 7 29.78 1009 10 16.0934 0.02 0.508
6:12 am 06:12 Cloudy with Light Rain 75 23.9 72 22.2 90 90 E 3 6 29.79 1009 10 16.0934 0.001 0.001
6:45 am 06:45 Cloudy with Light Rain 75 23.9 72 22.2 90 90 E 6 9 29.79 1009 10 16.0934 0.001 0.001
6:52 am 06:52 Cloudy 76 24.4 72 22.2 88 88 NE 6 9 29.79 1009 10 16.0934 0.001 0.001
7:00 am 07:00 Cloudy 76 24.4 72 22.2 88 88 NNE 6 9 29.79 1009 10 16.0934 0 0
7:52 am 07:52 Cloudy 76 24.4 72 22.2 88 88 NNE 8 13 29.8 1009 10 16.0934 0 0
8:30 am 08:30 Cloudy with Light Rain 75 23.9 71 21.7 88 88 NNE 8 13 29.81 1009 7 11.26538 0.001 0.001
8:52 am 08:52 Cloudy with Light Rain 74 23.3 71 21.7 91 91 N 7 11 29.81 1010 4 6.43736 0.001 0.001
9:20 am 09:20 Cloudy with Light Rain 75 23.9 72 22.2 90 90 NNW 6 9 29.81 1009 10 16.0934 0.01 0.254
9:28 am 09:28 Cloudy with Light Rain 75 23.9 72 22.2 90 90 NNW 5 7 29.81 1009 10 16.0934 0.01 0.254
9:52 am 09:52 Cloudy with Light Rain 75 23.9 72 22.2 90 90 NNE 5 7 29.81 1010 8 12.87472 0.02 0.508
10:33 am 10:33 Cloudy 76 24.4 72 22.2 88 88 N 5 7 29.82 1010 10 16.0934 0.001 0.001
10:52 am 10:52 Cloudy with Light Rain 77 25 72 22.2 85 85 NNE 5 7 29.81 1010 10 16.0934 0.001 0.001
11:34 am 11:34 Cloudy 77 25 71 21.7 82 82 NE 3 6 29.81 1009 10 16.0934 0.001 0.001
11:52 am 11:52 Cloudy with Light Rain 76 24.4 71 21.7 85 85 ENE 7 11 29.81 1010 10 16.0934 0.001 0.001
12:01 pm 12:01 Cloudy with Rain 76 24.4 71 21.7 85 85 ENE 7 11 29.81 1009 6 9.65604 0.01 0.254
12:52 pm 12:52 Cloudy with Light Rain 74 23.3 72 22.2 94 94 NE 5 7 29.81 1010 10 16.0934 0.02 0.508
12:56 pm 12:56 Cloudy with Light Rain 74 23.3 72 22.2 94 94 NE 6 9 29.82 1010 10 16.0934 0.001 0.001
1:52 pm 13:52 Cloudy 78 25.6 72 22.2 82 82 NE 6 9 29.81 1010 10 16.0934 0.001 0.001
2:52 pm 14:52 Mostly Cloudy 78 25.6 72 22.2 82 82 ENE 6 9 29.81 1010 10 16.0934 0.001 0.001
3:52 pm 15:52 Cloudy 78 25.6 72 22.2 82 82 NE 7 11 29.8 1009 10 16.0934 0.001 0.001
4:52 pm 16:52 Cloudy 80 26.7 71 21.7 74 74 NNE 6 9 29.81 1009 10 16.0934 0 0
5:52 pm 17:52 Mostly Cloudy 80 26.7 70 21.1 71 71 NNE 5 7 29.81 1009 10 16.0934 0 0
6:52 pm 18:52 Cloudy 80 26.7 71 21.7 74 74 NE 5 7 29.82 1010 10 16.0934 0 0
7:52 pm 19:52 Cloudy 80 26.7 71 21.7 74 74 ENE 7 11 29.82 1010 10 16.0934 0 0
8:52 pm 20:52 Cloudy 79 26.1 72 22.2 79 79 ENE 6 9 29.85 1011 10 16.0934 0 0
9:52 pm 21:52 Cloudy with Light Rain 79 26.1 72 22.2 79 79 E 7 11 29.88 1012 10 16.0934 0.001 0.001
10:52 pm 22:52 Cloudy 78 25.6 72 22.2 82 82 N 5 7 29.87 1012 10 16.0934 0.001 0.001
11:52 pm 23:52 Mostly Cloudy 78 25.6 72 22.2 82 82 Calm 29.88 1012 10 16.0934 0 0

Powered by AerisWeather